Observations for Trim Market St
| Time | AQI | Temp °C | Hum % | Pres Pa | CO μg/m³ | H₂S μg/m³ | NO μg/m³ | NO₂ μg/m³ | O₃ μg/m³ | SO₂ μg/m³ | PM1 μg/m³ | PM2.5 μg/m³ | PM10 μg/m³ |
|---|---|---|---|---|---|---|---|---|---|---|---|---|---|
| Monday 13 July 2026 | |||||||||||||
| 20:16 | 1 | 23.6 | 44 | 64,680 | 0 | 0 | 0 | 3.2 | 29.46 | 0 | 1.43 | 4.28 | 4.4 |
| 20:15 | 1 | 23.6 | 44 | 64,695 | 0 | 0 | 0 | 3.8 | 33.47 | 0 | 0.71 | 3.76 | 4.14 |
| 20:14 | 1 | 23.7 | 44 | 64,674 | 0 | 0 | 0 | 3.39 | 32.76 | 0 | 1.43 | 3.77 | 5.18 |
| 20:13 | 1 | 23.7 | 44 | 64,714 | 0 | 0 | 0 | 2.39 | 30.46 | 0 | 1.43 | 3.24 | 3.57 |
| 20:11 | 1 | 23.7 | 44 | 64,701 | 0 | 0 | 0 | 3.9 | 30.83 | 0 | 1.43 | 3.77 | 4.15 |
| 20:10 | 1 | 23.7 | 44 | 64,711 | 0 | 0 | 0 | 4.5 | 32.49 | 0 | 1.43 | 3.77 | 4.15 |
| 20:08 | 1 | 23.8 | 44 | 64,762 | 0 | 0 | 0 | 3.59 | 30.32 | 0 | 1.43 | 3.78 | 4.39 |
| 20:07 | 1 | 23.8 | 44 | 64,791 | 0 | 0 | 0 | 3.28 | 32.63 | 0 | 1.43 | 4.3 | 4.39 |
| 20:06 | 1 | 23.8 | 44 | 64,801 | 0 | 0 | 0 | 3.59 | 28.71 | 0 | 0.71 | 3.78 | 5.17 |
| 20:05 | 1 | 23.8 | 44 | 64,811 | 0 | 0 | 0 | 3.09 | 30.66 | 0 | 1.43 | 4.3 | 5.17 |
| 20:03 | 1 | 23.9 | 44 | 64,815 | 0 | 0 | 0 | 2.57 | 30.5 | 0 | 0.71 | 3.78 | 4.16 |
| 20:01 | 1 | 23.9 | 44 | 64,774 | 0 | 0 | 0 | 3.37 | 28.15 | 0 | 1.43 | 4.3 | 4.39 |
| 20:00 | 1 | 23.9 | 44 | 64,778 | 0 | 0 | 0 | 3.07 | 30.48 | 0 | 0.71 | 3.26 | 3.61 |
| 19:59 | 1 | 24 | 44 | 64,752 | 0 | 0 | 0 | 3.64 | 32.92 | 0 | 2.14 | 4.3 | 4.39 |
| 19:56 | 1 | 24 | 44 | 64,805 | 0 | 0 | 0 | 3.44 | 30.08 | 0 | 1.43 | 4.83 | 5.17 |
| 19:55 | 1 | 24 | 44 | 64,785 | 0 | 0 | 0 | 5.44 | 29.02 | 0 | 0.71 | 3.78 | 4.16 |
| 19:50 | 1 | 24.1 | 44 | 64,709 | 0 | 0 | 0 | 4.91 | 30.25 | 0 | 0.71 | 3.78 | 4.16 |
| 19:47 | 1 | 24.1 | 44 | 64,705 | 0 | 0 | 0 | 4.51 | 30.78 | 0 | 1.43 | 4.83 | 7.53 |
| 19:41 | 1 | 24.1 | 44 | 64,662 | 0 | 0 | 0 | 4.41 | 31.88 | 0 | 2.14 | 4.83 | 5.17 |
| 19:40 | 1 | 24.1 | 44 | 64,662 | 0 | 0 | 0 | 5.41 | 32.26 | 0 | 1.43 | 4.3 | 4.39 |